Lincoln, IL

1:21 AM CDT on March 25, 2017 (GMT -0500)
Lincoln

Weather History for KAAA - January, 2014

Change the Weather History Date:

Tuesday, January 14, 2014

  Actual Average (KSPI) Record (KSPI)
Temperature  
Mean Temperature 33 °F -  
Max Temperature 40 °F 31 °F 67 °F (1928)
Min Temperature 26 °F 15 °F -14 °F (1957)
Degree Days  
Heating Degree Days 32    
Moisture  
Dew Point 26 °F    
Average Humidity 78    
Maximum Humidity 96    
Minimum Humidity 57    
Precipitation  
Precipitation 0.08 in - - ()
Sea Level Pressure  
Sea Level Pressure 29.86 in    
Wind  
Wind Speed 7 mph (WSW)    
Max Wind Speed 17 mph    
Max Gust Speed 34 mph    
Visibility 9 miles    
Events Rain , Snow    
Averages and records for this station are not official NWS values.
T = Trace of Precipitation, MM = Missing Value Source: NWS Daily Summary

Daily Weather History Graph

Daily Weather History Graph

Search for Another Location

Airport or City:

Trip Planner

Search our weather history database for the weather conditions in past years. The results will help you decide how hot, cold, wet, or windy it might be!

Date:

Astronomy

Jan. 14, 2014 Rise Set
Actual Time 7:18 AM CST 4:55 PM CST
Civil Twilight 6:48 AM CST 5:24 PM CST
Nautical Twilight 6:14 AM CST 5:58 PM CST
Astronomical Twilight 5:42 AM CST 6:31 PM CST
Moon 4:00 PM CST (1/14) 5:52 AM CST (1/14)
Length of Visible Light 10h 36m
Length of Day
9h 36m
Waxing Gibbous, 98% of the Moon is Illuminated
Jan 14
Waxing Gibbous
Jan 15
Full
Jan 23
Last Quarter
Jan 30
New
Feb 6
First Quarter

Hourly Weather History & Observations

Time (CST) Temp. Windchill Dew Point Humidity Pressure Visibility Wind Dir Wind Speed Gust Speed Precip Events Conditions
12:15 AM 30.0 °F - 28.6 °F 94% 29.84 in 7.0 mi Calm Calm - N/A   Clear
12:35 AM 29.3 °F 25.6 °F 28.4 °F 96% 29.84 in 7.0 mi SW 3.5 mph - N/A   Clear
12:55 AM 29.3 °F - 28.0 °F 95% 29.83 in 7.0 mi Calm Calm - N/A   Clear
1:15 AM 27.5 °F 23.6 °F 26.6 °F 96% 29.82 in 5.0 mi South 3.5 mph - N/A   Clear
1:35 AM 28.2 °F - 27.3 °F 96% 29.83 in 7.0 mi Calm Calm - N/A   Clear
1:55 AM 28.6 °F 24.8 °F 27.5 °F 96% 29.83 in 7.0 mi SSW 3.5 mph - N/A   Clear
2:15 AM 29.8 °F 26.3 °F 28.4 °F 94% 29.83 in 7.0 mi SSW 3.5 mph - N/A   Clear
2:35 AM 28.6 °F - 27.3 °F 95% 29.83 in 7.0 mi Calm Calm - N/A   Clear
2:55 AM 29.5 °F 25.9 °F 28.2 °F 95% 29.82 in 7.0 mi South 3.5 mph - N/A   Clear
3:15 AM 29.3 °F 23.2 °F 28.0 °F 95% 29.81 in 7.0 mi South 5.8 mph - N/A   Clear
3:35 AM 30.0 °F 24.1 °F 28.4 °F 94% 29.80 in 7.0 mi South 5.8 mph - N/A   Clear
3:55 AM 29.3 °F 24.3 °F 27.5 °F 93% 29.79 in 7.0 mi South 4.6 mph - N/A   Clear
4:15 AM 29.1 °F 24.1 °F 27.5 °F 94% 29.78 in 7.0 mi SSE 4.6 mph - N/A   Clear
4:35 AM 30.2 °F 24.3 °F 28.8 °F 94% 29.78 in 10.0 mi South 5.8 mph - N/A   Clear
4:55 AM 30.6 °F 22.4 °F 28.8 °F 93% 29.76 in 10.0 mi South 9.2 mph - N/A   Clear
5:15 AM 31.1 °F 23.1 °F 29.3 °F 93% 29.75 in 10.0 mi SSE 9.2 mph - N/A   Clear
5:35 AM 31.6 °F 22.6 °F 29.7 °F 92% 29.74 in 10.0 mi South 11.5 mph - N/A   Clear
5:55 AM 32.0 °F 22.1 °F 29.8 °F 92% 29.73 in 10.0 mi South 13.8 mph - N/A   Clear
6:15 AM 32.0 °F 22.5 °F 29.8 °F 92% 29.72 in 10.0 mi South 12.7 mph - N/A   Clear
6:35 AM 32.0 °F 22.5 °F 29.7 °F 91% 29.72 in 10.0 mi South 12.7 mph - N/A   Clear
6:55 AM 32.0 °F 22.5 °F 29.8 °F 92% 29.72 in 10.0 mi South 12.7 mph - N/A   Clear
7:15 AM 32.4 °F 22.5 °F 30.2 °F 92% 29.72 in 10.0 mi South 13.8 mph - N/A   Mostly Cloudy
7:35 AM 33.1 °F 24.4 °F 30.6 °F 90% 29.72 in 10.0 mi South 11.5 mph - N/A   Overcast
7:55 AM 34.0 °F 25.5 °F 31.1 °F 89% 29.71 in 10.0 mi South 11.5 mph 18.4 mph N/A   Overcast
8:15 AM 34.3 °F 28.4 °F 31.1 °F 88% 29.73 in 10.0 mi SSW 6.9 mph 16.1 mph N/A   Overcast
8:35 AM 35.2 °F 28.1 °F 31.6 °F 87% 29.73 in 10.0 mi SSW 9.2 mph - N/A   Overcast
8:55 AM 35.1 °F 25.5 °F 32.0 °F 89% 29.71 in 5.0 mi South 15.0 mph - 0.02 in Rain Rain
9:15 AM 35.1 °F 28.6 °F 32.2 °F 89% 29.74 in 10.0 mi SSW 8.1 mph - N/A Rain Light Rain
9:35 AM 35.6 °F 30.7 °F 32.2 °F 87% 29.75 in 7.0 mi SW 5.8 mph - N/A Snow Light Snow
9:55 AM 36.5 °F 33.9 °F 33.1 °F 87% 29.75 in 10.0 mi SW 3.5 mph - 0.02 in   Overcast
10:15 AM 37.0 °F 30.4 °F 32.9 °F 85% 29.76 in 10.0 mi West 9.2 mph - N/A Rain Light Rain
10:35 AM 34.9 °F 28.3 °F 32.9 °F 92% 29.78 in 1.2 mi West 8.1 mph - 0.01 in Rain Light Rain
10:55 AM 34.9 °F 29.9 °F 33.8 °F 96% 29.78 in 7.0 mi West 5.8 mph - 0.04 in Rain Light Rain
11:15 AM 36.7 °F 32.0 °F 35.4 °F 95% 29.77 in 7.0 mi West 5.8 mph - N/A   Overcast
11:35 AM 37.9 °F 30.9 °F 35.6 °F 91% 29.77 in 10.0 mi West 10.4 mph 17.3 mph N/A   Overcast
11:55 AM 38.8 °F 31.2 °F 34.9 °F 86% 29.78 in 10.0 mi WNW 12.7 mph 23.0 mph N/A   Mostly Cloudy
12:15 PM 38.8 °F 30.8 °F 30.7 °F 73% 29.78 in 10.0 mi WNW 13.8 mph 29.9 mph N/A   Scattered Clouds
12:35 PM 40.1 °F 31.3 °F 30.7 °F 69% 29.79 in 10.0 mi West 17.3 mph 28.8 mph N/A   Scattered Clouds
12:55 PM 39.7 °F 31.2 °F 28.0 °F 63% 29.80 in 10.0 mi WNW 16.1 mph 32.2 mph N/A   Scattered Clouds
1:15 PM 39.2 °F 30.2 °F 28.0 °F 64% 29.80 in 10.0 mi WNW 17.3 mph 26.5 mph N/A   Scattered Clouds
1:35 PM 39.4 °F 32.3 °F 28.9 °F 66% 29.81 in 10.0 mi WNW 11.5 mph 26.5 mph N/A   Mostly Cloudy
1:55 PM 37.4 °F 28.2 °F 24.4 °F 60% 29.83 in 10.0 mi WNW 16.1 mph 28.8 mph N/A   Scattered Clouds
2:15 PM 36.1 °F 26.5 °F 23.7 °F 61% 29.85 in 10.0 mi WNW 16.1 mph 34.5 mph N/A   Mostly Cloudy
2:35 PM 35.6 °F 27.5 °F 24.1 °F 63% 29.86 in 10.0 mi WNW 11.5 mph 25.3 mph N/A   Overcast
2:55 PM 35.1 °F 25.5 °F 23.2 °F 62% 29.88 in 10.0 mi WNW 15.0 mph 26.5 mph N/A   Overcast
3:15 PM 34.2 °F 24.0 °F 23.9 °F 66% 29.89 in 10.0 mi WNW 16.1 mph 31.1 mph N/A   Overcast
3:35 PM 33.8 °F 25.8 °F 22.8 °F 64% 29.91 in 10.0 mi WNW 10.4 mph 23.0 mph N/A   Overcast
3:55 PM 33.1 °F 23.4 °F 21.4 °F 62% 29.92 in 10.0 mi West 13.8 mph 25.3 mph N/A   Mostly Cloudy
4:15 PM 32.9 °F 24.1 °F 20.1 °F 59% 29.93 in 10.0 mi West 11.5 mph 26.5 mph N/A   Scattered Clouds
4:35 PM 32.5 °F 23.2 °F 20.1 °F 60% 29.94 in 10.0 mi West 12.7 mph 23.0 mph N/A   Clear
4:55 PM 32.9 °F 22.0 °F 19.2 °F 57% 29.94 in 10.0 mi WNW 17.3 mph 26.5 mph N/A   Mostly Cloudy
5:15 PM 32.5 °F 23.7 °F 19.9 °F 60% 29.95 in 10.0 mi WNW 11.5 mph 25.3 mph N/A   Overcast
5:35 PM 32.0 °F 23.0 °F 20.1 °F 62% 29.96 in 10.0 mi WNW 11.5 mph 21.9 mph N/A   Mostly Cloudy
5:55 PM 31.5 °F 21.4 °F 21.2 °F 66% 29.97 in 10.0 mi West 13.8 mph 20.7 mph N/A   Scattered Clouds
6:15 PM 31.1 °F 23.1 °F 20.3 °F 64% 29.98 in 10.0 mi West 9.2 mph 23.0 mph N/A   Scattered Clouds
6:35 PM 30.7 °F 22.6 °F 19.4 °F 63% 29.99 in 10.0 mi WNW 9.2 mph 18.4 mph N/A   Clear
6:55 PM 30.9 °F 23.5 °F 18.1 °F 59% 29.99 in 10.0 mi West 8.1 mph 19.6 mph N/A   Scattered Clouds
7:15 PM 31.5 °F 21.8 °F 17.6 °F 57% 30.00 in 10.0 mi West 12.7 mph 19.6 mph N/A   Mostly Cloudy
7:35 PM 31.3 °F 22.7 °F 18.1 °F 58% 29.99 in 10.0 mi West 10.4 mph 23.0 mph N/A   Overcast
7:55 PM 31.1 °F 20.9 °F 18.5 °F 60% 30.00 in 10.0 mi WNW 13.8 mph 27.6 mph N/A   Overcast
8:35 PM 29.3 °F 18.6 °F 18.1 °F 63% 30.01 in 10.0 mi WNW 13.8 mph 28.8 mph N/A   Overcast
8:55 PM 28.8 °F 19.0 °F 16.2 °F 59% 30.00 in 10.0 mi WNW 11.5 mph 27.6 mph N/A   Overcast
9:15 PM 27.5 °F 16.8 °F 16.7 °F 64% 30.01 in 10.0 mi WNW 12.7 mph 23.0 mph N/A   Mostly Cloudy
9:35 PM 27.1 °F 16.9 °F 16.0 °F 63% 30.02 in 10.0 mi WNW 11.5 mph 25.3 mph N/A   Clear
9:55 PM 27.5 °F 15.9 °F 16.2 °F 62% 30.02 in 10.0 mi WNW 15.0 mph 24.2 mph N/A   Mostly Cloudy
10:15 PM 27.5 °F 18.0 °F 17.2 °F 65% 30.02 in 10.0 mi WNW 10.4 mph 17.3 mph N/A   Overcast
10:35 PM 27.3 °F 16.1 °F 17.6 °F 67% 30.02 in 10.0 mi WNW 13.8 mph 21.9 mph N/A   Overcast
10:55 PM 27.1 °F 16.9 °F 17.1 °F 66% 30.02 in 10.0 mi WNW 11.5 mph 20.7 mph N/A   Overcast
11:15 PM 27.0 °F 16.1 °F 16.7 °F 65% 30.02 in 10.0 mi WNW 12.7 mph 21.9 mph N/A   Overcast
11:35 PM 26.6 °F 17.5 °F 17.8 °F 69% 30.02 in 10.0 mi West 9.2 mph 19.6 mph N/A   Overcast
11:55 PM 26.6 °F 18.2 °F 17.6 °F 69% 30.03 in 10.0 mi West 8.1 mph 17.3 mph N/A Snow Light Snow